Tracking 20719 objects as of 26-May-2020
HD Live streaming from Space Station
objects crossing your sky now

WESTAR 5

Track WESTAR 5 now!
WESTAR 5 is classified as:


NORAD ID: 13269
Int'l Code: 1982-058A
Perigee: 36,047.3 km
Apogee: 36,136.8 km
Inclination: 15.1 °
Period: 1,451.4 minutes
Semi major axis: 42463 km
RCS: 3.0486 m2 (large)
Launch date: June 9, 1982
Source: United States (US)
Launch site: AIR FORCE EASTERN TEST RANGE (AFETR)
aabbcc
Your satellite tracking list
Your tracking list is empty




NASA's NSSDC Master Catalog

Two Line Element Set (TLE):
1 13269U 82058A   20146.85575765 -.00000292 +00000-0 +00000-0 0  9999
2 13269 015.0640 354.6220 0010543 220.8541 105.8329 00.99217035097578
Source of the keplerian elements: AFSPC